Location: Unspecified
(0.0000°N, 0.0000°E)
Time: 07:15:57
(UTC+00:00)

Transit VBN-1 - Visible Passes

Search period start: 21 May 2024 00:00
Search period end: 31 May 2024 00:00
Orbit: 1060 x 1124 km, 90.0° (Epoch: 21 May)

Date Brightness Start Highest point End Pass type
(mag) Time Alt. Az. Time Alt. Az. Time Alt. Az.
22 May 11.0 19:07:19 10° NNW 19:12:42 25° W 19:18:09 10° SW visible
23 May 11.4 04:58:48 10° SE 05:03:02 18° E 05:07:13 10° NE visible
23 May 9.3 18:19:19 10° N 18:26:05 66° W 18:32:56 10° SSW visible
24 May 11.5 19:22:27 10° NW 19:26:02 15° W 19:29:40 10° WSW visible
25 May 10.8 05:10:43 10° SE 05:16:22 30° E 05:21:56 10° NNE visible
25 May 10.3 18:33:06 10° NNW 18:39:26 41° W 18:45:50 10° SSW visible
27 May 9.8 05:23:20 10° SSE 05:29:42 49° E 05:35:58 10° NNE visible
27 May 11.1 18:47:21 10° NNW 18:52:46 25° W 18:58:15 10° SW visible
28 May 11.4 04:38:53 10° SE 04:43:04 18° E 04:47:12 10° NE visible
29 May 11.6 19:02:28 10° NW 19:06:07 15° W 19:09:47 10° WSW visible
30 May 10.7 04:50:47 10° SE 04:56:23 29° E 05:01:56 10° NNE visible
30 May 10.3 18:13:09 10° NNW 18:19:30 41° W 18:25:56 10° SSW visible
